{"data":{"norad_id":69743,"intl_designator":"2026-150E","name":"STARLINK-38087","alt_names":[],"object_type":"PAYLOAD","status":"ACTIVE","operator":null,"country":"US","launch_date":"2026-07-02","launch_site_code":"AFWTR","launch_vehicle":null,"mission":null,"orbit_class":"UNKNOWN","rcs_meters":null,"size_class":null,"mass_kg":null,"dimensions":null,"purposes":["comms"],"wikipedia_slug":null,"has_3d_model":false,"image_url":null,"decayed_at":null,"tle_current":{"epoch":"2026-09-19T08:34:13.071936Z","epoch_age_seconds":120380,"freshness":"FRESH","line1":"1 69743U 26150E   26262.35709574  .00011845  00000+0  36855-3 0  9999","line2":"2 69743  97.2846 101.3441 0001901  92.2166 267.9294 15.33454235 13567","mean_motion":15.33454235,"eccentricity":0.0001901,"inclination_deg":97.2846,"raan_deg":101.3441,"arg_perigee_deg":92.2166,"mean_anomaly_deg":267.9294,"bstar":0.00036855,"rev_number":1356,"period_min":93.905639120688,"perigee_km":464.21471937556,"apogee_km":466.81667613125,"semimajor_km":6843.6526977534,"source":"CELESTRAK","updated_at":"2026-09-20T09:00:44.286775Z"}}}